Volver al catálogo

FENGYUN 1C DEB

ActivoSSO
NORAD 30300·DEBRIS·🇨🇳 China

Lanzado May 10, 1999 desde Taiyuan Satellite Launch Center

Loading…

Próximos Pases (próximas 24 horas)

TLE

EnvejeciendoSource: Space-Track

Época: Sep 11, 2026, 04:57 UTC

1 30300U 99025ZM  26254.20637726  .00003219  00000-0  12454-2 0  9996
2 30300  99.0318 338.0374 0071896 226.5548 162.5432 14.29402757  8449

Sigue FENGYUN 1C DEB en tiempo real con AllMySat

Download on the App Store